Regional Weather Roundup
Issued by NWS

Home | Current Version | Previous Version | Text Only | Print | Product List | Glossary Off
Versions: 1 2 3 4 5 6 7 8 9 10 11 12 13 14 15 16 17 18 19 20 21 22 23 24 25 26 27 28 29 30 31 32 33 34 35 36 37 38 39 40 41 42 43 44 45 46 47 48 49 50

000
ASUS43 KLOT 190108
RWRIL

ILLINOIS REGIONAL WEATHER ROUNDUP
NATIONAL WEATHER SERVICE CHICAGO/ROMEOVILLE IL
700 PM CST SAT NOV 18 2017

NOTE: "FAIR" INDICATES FEW OR NO CLOUDS BELOW 12,000 FEET WITH NO
SIGNIFICANT WEATHER AND/OR OBSTRUCTIONS TO VISIBILITY.

* THESE STATIONS ARE NOT UNDER NWS QUALITY CONTROL. THEY ALSO MAY NOT
  REPORT WEATHER SUCH AS PRECIPITATION OR FOG.

ILZ001-002-007-009-015-016-024-190200-
NORTHWEST ILLINOIS

CITY           SKY/WX    TMP DP  RH WIND       PRES   REMARKS
MOLINE         CLEAR     39  30  70 NW23G37   29.84R WCI  28
STERLING*      CLEAR     32  30  92 W7        29.80R WCI  26
SAVANNA*       CLEAR     39  31  72 NW14G20   29.81R WCI  30
$$

ILZ003-004-008-010-011-017-018-190200-
NORTH CENTRAL ILLINOIS

CITY           SKY/WX    TMP DP  RH WIND       PRES   REMARKS
ROCKFORD       PTCLDY    34  29  82 NW6       29.78R WCI  29
FREEPORT*      CLEAR     35  31  86 NW10      29.79R WCI  27
ROCHELLE*      CLEAR     34  32  90 NW6       29.78R WCI  29
DE KALB*       CLOUDY    37  32  83 NW14      29.75R WCI  28
PERU*          CLEAR     34  32  92 NW9       29.79R WCI  26
$$

ILZ005-006-012>014-019>023-190200-
NORTHEAST ILLINOIS

CITY           SKY/WX    TMP DP  RH WIND       PRES   REMARKS
CHICAGO-OHARE  CLOUDY    39  30  70 N20G28    29.70R WCI  29
CHICAGO-MIDWAY CLOUDY    40  32  73 NW22G32   29.70R
AURORA         CLOUDY    38  33  82 NW20      29.73R WCI  28
LANSING*       CLOUDY    39  35  84 NW16      29.68R WCI  30
JOLIET*        CLOUDY    40  34  77 NW10G16   29.73R
WAUKEGAN       CLOUDY    38  30  73 NW12G21   29.69R WCI  30
DUPAGE AIRPORT CLOUDY    38  31  76 NW21G30   29.71R WCI  28
KANKAKEE*      CLOUDY    39  33  78 NW18G25   29.71R WCI  30
WHEELING       CLOUDY    39  31  72 N12G24    29.71R WCI  32
MORRIS*        CLOUDY    38  33  82 NW10G17   29.73R WCI  31
ROMEOVILLE*    CLOUDY    38  32  78 NW20G26   29.71R WCI  28
NORTHERLY ISL    N/A     40  31  70 NW12        N/A
$$

LMZ740>746-190200-
SOUTHERN LAKE MICHIGAN

STATION/POSITION SKY/WX   TEMP    WIND        PRES    VSBY  WAVE
                          AIR SEA DIR/SP/G                  HT/PER
                          (F)     (DEG/KT/KT) (MB)    (MI)  (FT/S)
SOUTHERN BUOY              42 49  350/ 29/ 35 1001.7         11/ 8
HARRISON CRIB              41     320/ 25/ 29   N/A
BURNHAM HARBOR             40     350/ 15/ 21   N/A
BURNS HARBOR               43     340/ 25/ 33 1003.7R
MICHIGAN CITY              42     320/ 35/ 39   N/A
$$

ILZ025>027-034>036-040-047-049-050-058-095>099-190200-
WEST-CENTRAL ILLINOIS

CITY           SKY/WX    TMP DP  RH WIND       PRES   REMARKS
QUINCY         CLEAR     40  31  70 NW15      29.92R
GALESBURG*     CLEAR     38  33  81 W18G26    29.86R WCI  29
MACOMB*        CLEAR     38  32  79 NW18      29.90R WCI  28
JACKSONVILLE*  CLEAR     40  33  77 W16G23    29.87R
PITTSFIELD*    CLEAR     41  32  71 W13G18    29.91R
$$

ILZ028>032-037-038-041>044-048-051>054-059>061-190200-
CENTRAL ILLINOIS

CITY           SKY/WX    TMP DP  RH WIND       PRES   REMARKS
PONTIAC        CLOUDY    39  36  91 NW17G24   29.77R WCI  30
BLOOMINGTON    PTCLDY    37  33  85 NW17      29.78R WCI  27
DECATUR        CLOUDY    40  35  83 NW23G35   29.79R
PEORIA         CLEAR     39  34  82 NW12G22   29.82R WCI  32
LACON*         CLEAR     36  33  90 CALM      29.80R
LINCOLN*       PTCLDY    39  36  90 NW8       29.81R WCI  33
SPRINGFIELD    MOCLDY    41  35  79 NW20      29.83R
TAYLORVILLE    CLOUDY    39  34  81 NW15G21   29.83R WCI  31
$$

ILZ033-039-045-046-055>057-062-063-190200-
EAST-CENTRAL ILLINOIS

CITY           SKY/WX    TMP DP  RH WIND       PRES   REMARKS
CHAMPAIGN      CLOUDY    40  35  83 NW25G32   29.75R
DANVILLE*      CLOUDY    38  36  89 NW20G25   29.67R WCI  29
RANTOUL*       CLOUDY    40  35  82 NW18G25   29.74R
MATTOON        CLOUDY    40  37  89 NW24      29.75R
PARIS*         CLOUDY    39  37  91 NW17G26   29.73R WCI  30
$$

ILZ079-100>102-190200-
SOUTHWEST ILLINOIS

CITY           SKY/WX    TMP DP  RH WIND       PRES   REMARKS
ALTON          PTCLDY    41  36  81 W14G21    29.89R
BELLEVILLE     PTCLDY    42  35  78 W12G20    29.88R
CAHOKIA*       PTCLDY    43  34  70 NW15      29.90R
SPARTA*        CLOUDY    42  36  79 NW15G22   29.90R
$$

ILZ064>066-069>071-074>076-080>082-084>086-088>090-092>094-190200-
SOUTH-CENTRAL ILLINOIS

CITY           SKY/WX    TMP DP  RH WIND       PRES   REMARKS
CARBONDALE     CLOUDY    44  41  89 NW14G23   29.88R
CAIRO*         CLOUDY    45  40  81 NW18G26   29.90R
EFFINGHAM*     CLOUDY    42  40  90 W16       29.80R
MARION         CLOUDY    45  43  93 NW14      29.87R
MT. VERNON     CLOUDY    43  39  86 NW8G18    29.83R
CENTRALIA*     CLOUDY    43  40  86 NW20G26   29.83R
SALEM*         CLOUDY    44  38  80 NW18G24   29.83R
METROPOLIS*    CLOUDY    44  39  82 NW15G23   29.87R
$$

ILZ067-068-072-073-078-083-087-091-190200-
SOUTHEAST ILLINOIS

CITY           SKY/WX    TMP DP  RH WIND       PRES   REMARKS
LAWRENCEVILLE  CLOUDY    40  37  89 NW17      29.75R
FLORA*         CLOUDY    44  40  86 NW18G28   29.70
FAIRFIELD*     CLOUDY    40  40  98 W3        29.80R
HARRISBURG*    CLOUDY    42  40  93 NW17      29.84R
ROBINSON*      CLOUDY    40  37  92 NW22G28   29.75R
CARMI*         CLOUDY    40  38  95 W16       29.80R
$$

ABBREVIATIONS USED IN REMARKS
   TC - TEMPERATURE IN CELSIUS
  WCI - WIND CHILL INDEX
   HX - HEAT INDEX
  VSB - VISIBILITY
$$





USA.gov is the U.S. government's official web portal to all federal, state and local government web resources and services.